[[{"header":{"parameterUnit":"m.s-1","parameterCategory":1,"la1":30.2991,"la2":30.254,"lo1":-89.0895,"lo2":-89.0444,"dy":0.0017,"dx":0.0017,"nx":28,"ny":28,"refTime":"2023-09-16T21:00:00:Z","depth":0,"parameterNumber":2,"parameterNumberName":"U-component_of_WINDS"},"data":[0,0,0,0,0,0,0,0,0,0,0,0,0,0,0,0,0,0,0,0,0,0,0,0,0,0,0,0,0,0,0,0,0,0,0,0,0,0,0,0,0,0,0,0,0,0,0,0,0,0,0,0,0,0,0,0,0,0,-2.4796,-2.4796,0,-2.486,-2.4861,-2.4862,-2.4735,-2.4731,-2.4727,-2.4723,-2.4791,-2.4797,-2.4802,0,0,0,0,0,0,0,0,0,0,0,0,0,-2.4564,-2.4569,-2.4796,-2.4796,-2.4797,-2.486,-2.4861,-2.4862,-2.4736,-2.4731,-2.4726,-2.4721,-2.4789,-2.4796,-2.4803,0,0,0,0,0,0,0,0,0,0,0,0,0,-2.465,-2.457,-2.4796,-2.4742,-2.4738,-2.486,-2.4861,-2.4862,-2.4737,-2.4731,-2.4724,-2.4718,-2.4787,-2.4795,-2.4804,-2.4982,0,0,-2.483,-2.4834,0,0,0,0,0,0,0,0,-2.4646,-2.4659,-2.4749,-2.4746,-2.4741,-2.4783,-2.4804,-2.4902,-2.4738,-2.4737,-2.4723,-2.4715,-2.4794,-2.4801,-2.4827,-2.4985,-2.4988,-2.4831,-2.4836,-2.484,-2.4842,0,0,0,0,0,0,0,-2.464,-2.4655,-2.4821,-2.475,-2.4746,-2.4715,-2.472,-2.4822,-2.48,-2.4737,-2.4728,-2.4737,-2.479,-2.4819,-2.4828,-2.4989,-2.483,-2.4838,-2.4843,-2.4847,-2.5296,-2.5302,0,0,0,0,0,0,-2.464,-2.4651,-2.4819,-2.4823,-2.4677,-2.4724,-2.473,-2.4776,-2.4798,-2.4796,-2.4742,-2.4731,-2.4808,-2.4818,-2.483,-2.504,-2.484,-2.4848,-2.4852,-2.5289,-2.5297,-2.5304,0,0,0,0,0,0,-2.4636,-2.4656,-2.4816,-2.4735,-2.4753,-2.4735,-2.4787,-2.4781,-2.4809,-2.4802,-2.4798,-2.4776,-2.4803,-2.4818,-2.4945,-2.5041,-2.4851,-2.4859,-2.5281,-2.5291,-2.5301,-2.5463,0,0,0,0,0,0,-2.463,-2.4656,-2.4723,-2.4737,-2.4758,-2.4931,-2.4793,-2.4786,-2.4824,-2.481,-2.4833,-2.4831,-2.4799,-2.4933,-2.4953,-2.5049,-2.4866,-2.5272,-2.5285,-2.5297,-2.5449,-2.5477,-2.5501,0,0,0,0,0,-2.4622,-2.4767,-2.4727,-2.4748,-2.4842,-2.4937,-2.4948,-2.4909,-2.4832,-2.49,-2.4895,-2.483,-2.5026,-2.4947,-2.4969,-2.5069,-2.5266,-2.5282,-2.5297,-2.5437,-2.5471,-2.5501,0,0,0,0,0,0,-2.4766,-2.4768,-2.4724,-2.4878,-2.4908,-2.4915,-2.5,-2.4947,-2.5,-2.4985,-2.4933,-2.494,-2.5077,-2.5085,-2.4996,-2.5242,-2.5133,-2.5154,-2.5232,-2.5265,-2.5291,-2.5287,-2.4873,0,0,0,0,0,-2.4815,-2.4892,-2.4889,-2.5025,-2.5042,-2.5019,-2.5059,-2.5025,-2.5055,-2.5067,-2.5072,-2.5103,-2.5172,-2.5218,-2.5281,-2.5448,-2.5451,-2.5527,-2.5554,-2.5575,-2.5595,-2.5683,-2.5717,-2.5355,-2.5354,-2.5354,0,0,-2.4919,-2.4929,-2.4981,-2.5054,-2.5074,-2.5155,-2.503,-2.5121,-2.5181,-2.5081,-2.5202,-2.5206,-2.5237,-2.5385,-2.5451,-2.5396,-2.5695,-2.5595,-2.5612,-2.562,-2.5703,-2.5737,-2.5768,-2.5365,-2.5363,-2.5361,0,0,-2.5149,-2.5164,-2.5279,-2.5301,-2.5331,-2.5314,-2.5342,-2.5356,-2.5355,-2.5475,-2.5401,-2.5471,-2.559,-2.5616,-2.5645,-2.5882,-2.5824,-2.5904,-2.6043,-2.613,-2.6159,-2.6184,-2.627,-2.6301,-2.5922,-2.5923,-2.5923,0,-2.5274,-2.5393,-2.5345,-2.5441,-2.5476,-2.5387,-2.5503,-2.5526,-2.5577,-2.5603,-2.554,-2.5687,-2.5702,-2.5855,-2.5913,-2.5939,-2.5969,-2.5903,-2.6158,-2.6183,-2.6206,-2.6287,-2.632,-2.5933,-2.5931,-2.593,-2.593,0,-2.5546,-2.5629,-2.5718,-2.5768,-2.5812,-2.5918,-2.5886,-2.5936,-2.5898,-2.5888,-2.601,-2.6025,-2.6089,-2.6122,-2.6086,-2.627,-2.6235,-2.6167,-2.6057,-2.6251,-2.6327,-2.6357,-2.5946,-2.5943,-2.594,-2.5938,0,0,-2.5872,-2.5892,-2.5926,-2.5947,-2.5973,-2.6036,-2.6137,-2.6199,-2.6244,-2.628,-2.6364,-2.6466,-2.6402,-2.6435,-2.6401,-2.6477,-2.6666,-2.6399,-2.6399,-2.6449,-2.687,-2.6923,-2.696,-2.6626,-2.6631,-2.6636,-2.6867,0,-2.6101,-2.6276,-2.6234,-2.6407,-2.6483,-2.6399,-2.6487,-2.6512,-2.6505,-2.6568,-2.6559,-2.6633,-2.6542,-2.6562,-2.6633,-2.6628,-2.675,-2.661,-2.6705,-2.6709,-2.6702,-2.6999,-2.7056,-2.7274,-2.6896,-2.6901,-2.6905,0,-2.6393,-2.644,-2.662,-2.6633,-2.6663,-2.6743,-2.6796,-2.6858,-2.6884,-2.6873,-2.6909,-2.6859,-2.6959,-2.6846,-2.6984,-2.689,-2.6926,-2.6929,-2.6936,-2.6946,-2.6821,-2.7019,-2.7342,-2.7376,-2.6951,-2.6947,-2.6944,0,-2.6615,-2.6723,-2.6844,-2.6865,-2.6882,-2.6941,-2.6951,-2.6971,-2.701,-2.7056,-2.7081,-2.7138,-2.717,-2.7216,-2.7183,-2.7103,-2.7326,-2.721,-2.7321,-2.7322,-2.7374,-2.7372,-2.7711,-2.7394,-2.7393,-2.7393,-2.7392,0,-2.6877,-2.6991,-2.6944,-2.702,-2.7144,-2.7095,-2.722,-2.722,-2.7239,-2.7312,-2.7242,-2.7313,-2.7264,-2.733,-2.7305,-2.7423,-2.7437,-2.7432,-2.7424,-2.744,-2.7441,-2.7465,-2.745,-2.7401,-2.7399,-2.7398,-2.7396,0,-2.7148,-2.7121,-2.7248,-2.7253,-2.7257,-2.7349,-2.7353,-2.7423,-2.7409,-2.7503,-2.7522,-2.75,-2.7575,-2.7546,-2.7625,-2.7608,-2.776,-2.7731,-2.7751,-2.7744,-2.7857,-2.7848,-2.8225,-2.8272,-2.7923,-2.7927,-2.7929,0,-2.7319,-2.7404,-2.7418,-2.7462,-2.7476,-2.7548,-2.7587,-2.7541,-2.7585,-2.7621,-2.7687,-2.7755,-2.7807,-2.7931,-2.7922,-2.7982,-2.7956,-2.8084,-2.7965,-2.7977,-2.796,-2.7956,-2.7965,-2.8109,-2.8113,-2.8116,-2.8119,0,-2.7624,-2.7606,-2.7665,-2.772,-2.7769,-2.781,-2.7845,-2.7885,-2.784,-2.7893,-2.7968,-2.8008,-2.8088,-2.8157,-2.821,-2.822,-2.8164,-2.8155,-2.8185,-2.8203,-2.8212,-2.821,-2.7818,-2.8148,-2.8145,-2.8143,-2.8141,-2.814,-2.7851,-2.7923,-2.7944,-2.8012,-2.8033,-2.8067,-2.8132,-2.8125,-2.8187,-2.8248,-2.8217,-2.8304,-2.8327,-2.8393,-2.841,-2.8478,-2.8428,-2.847,-2.8481,-2.8493,-2.8508,-2.8199,-2.8487,-2.8486,-2.8486,-2.8485,-2.8484,0,-2.8155,-2.8164,-2.8226,-2.8277,-2.833,-2.8269,-2.8304,-2.8353,-2.8431,-2.8457,-2.8509,-2.8595,-2.8661,-2.8657,-2.8717,-2.8772,-2.8748,-2.879,-2.8787,-2.879,-2.8549,-2.8518,-2.8809,-2.8809,-2.8809,-2.8809,-2.8809,-2.8809,-2.832,-2.8438,-2.8422,-2.855,-2.8558,-2.8642,-2.8668,-2.8698,-2.8719,-2.8818,-2.8872,-2.8868,-2.8882,-2.8942,-2.9,-2.8997,-2.9024,-2.9077,-2.9064,-2.8839,-2.8807,-2.8777,-2.8748,-2.9082,-2.9083,-2.93,-2.9302,-2.9304]},{"header":{"parameterUnit":"m.s-1","parameterCategory":1,"la1":30.2991,"la2":30.254,"lo1":-89.0895,"lo2":-89.0444,"dy":0.0017,"dx":0.0017,"nx":28,"ny":28,"refTime":"2023-09-16T21:00:00:Z","depth":0,"parameterNumber":3,"parameterNumberName":"V-component_of_WINDS"},"data":[0,0,0,0,0,0,0,0,0,0,0,0,0,0,0,0,0,0,0,0,0,0,0,0,0,0,0,0,0,0,0,0,0,0,0,0,0,0,0,0,0,0,0,0,0,0,0,0,0,0,0,0,0,0,0,0,0,0,-3.3147,-3.3148,0,-3.3237,-3.3238,-3.3239,-3.3202,-3.3199,-3.3197,-3.3195,-3.3285,-3.3289,-3.3294,0,0,0,0,0,0,0,0,0,0,0,0,0,-3.2942,-3.2946,-3.3147,-3.3148,-3.315,-3.3236,-3.3238,-3.3239,-3.3202,-3.3199,-3.3197,-3.3194,-3.3284,-3.3289,-3.3294,0,0,0,0,0,0,0,0,0,0,0,0,0,-3.3032,-3.2948,-3.3147,-3.3142,-3.3142,-3.3236,-3.3238,-3.3239,-3.3203,-3.3199,-3.3196,-3.3193,-3.3282,-3.3288,-3.3295,-3.3399,0,0,-3.3315,-3.3318,0,0,0,0,0,0,0,0,-3.3027,-3.3039,-3.3141,-3.3142,-3.3143,-3.3205,-3.3198,-3.3293,-3.3203,-3.318,-3.3195,-3.3192,-3.3261,-3.3269,-3.3293,-3.3403,-3.3407,-3.3315,-3.3319,-3.3322,-3.3324,0,0,0,0,0,0,0,-3.302,-3.3035,-3.3183,-3.3143,-3.3144,-3.3134,-3.3143,-3.3216,-3.3237,-3.3181,-3.3179,-3.319,-3.3261,-3.3286,-3.3294,-3.3409,-3.3315,-3.3321,-3.3325,-3.3328,-3.3609,-3.3612,0,0,0,0,0,0,-3.3014,-3.303,-3.318,-3.3185,-3.3076,-3.314,-3.315,-3.3188,-3.3236,-3.324,-3.3193,-3.3188,-3.3277,-3.3287,-3.3297,-3.3423,-3.3322,-3.3328,-3.3332,-3.3605,-3.3609,-3.3613,0,0,0,0,0,0,-3.301,-3.3028,-3.3176,-3.3107,-3.3125,-3.3147,-3.319,-3.3191,-3.3217,-3.3245,-3.3248,-3.3215,-3.3275,-3.3288,-3.3374,-3.3425,-3.3331,-3.3337,-3.3601,-3.3606,-3.3611,-3.3674,0,0,0,0,0,0,-3.3004,-3.3027,-3.3067,-3.3108,-3.3129,-3.3252,-3.3193,-3.3196,-3.3229,-3.3224,-3.3267,-3.3271,-3.3273,-3.3365,-3.3381,-3.3432,-3.3342,-3.3597,-3.3603,-3.361,-3.3667,-3.368,-3.3692,0,0,0,0,0,-3.2997,-3.3081,-3.307,-3.3088,-3.318,-3.3255,-3.3267,-3.3268,-3.3233,-3.3274,-3.3291,-3.327,-3.3417,-3.3374,-3.3392,-3.3446,-3.3593,-3.3601,-3.3609,-3.3662,-3.3678,-3.3691,0,0,0,0,0,0,-3.3045,-3.3086,-3.3074,-3.3174,-3.3211,-3.3249,-3.33,-3.3286,-3.3333,-3.3326,-3.3326,-3.3336,-3.3424,-3.3444,-3.3395,-3.3549,-3.35,-3.3512,-3.3533,-3.3549,-3.3561,-3.3555,-3.3348,0,0,0,0,0,-3.3067,-3.3125,-3.3158,-3.3243,-3.3262,-3.3278,-3.3311,-3.3308,-3.3347,-3.3363,-3.3386,-3.3424,-3.3479,-3.3515,-3.3567,-3.367,-3.3678,-3.3716,-3.3728,-3.3738,-3.3748,-3.3804,-3.3821,-3.3639,-3.3639,-3.3639,0,0,-3.3113,-3.3143,-3.318,-3.3253,-3.3282,-3.3341,-3.3291,-3.3357,-3.34,-3.3372,-3.3455,-3.3474,-3.3516,-3.3611,-3.3653,-3.3629,-3.38,-3.3748,-3.3756,-3.3761,-3.3814,-3.3831,-3.3846,-3.3645,-3.3644,-3.3643,0,0,-3.3228,-3.3257,-3.333,-3.336,-3.3405,-3.3414,-3.3432,-3.3472,-3.3483,-3.3567,-3.3547,-3.3598,-3.3693,-3.3724,-3.3752,-3.3877,-3.3859,-3.3894,-3.3959,-3.4013,-3.4027,-3.4039,-3.4084,-3.41,-3.3904,-3.3905,-3.3905,0,-3.328,-3.3369,-3.3369,-3.3436,-3.3469,-3.3447,-3.352,-3.3549,-3.3608,-3.3631,-3.3603,-3.3721,-3.3748,-3.3849,-3.388,-3.3904,-3.3923,-3.3889,-3.4025,-3.4038,-3.4049,-3.4092,-3.4109,-3.3909,-3.3908,-3.3908,-3.3907,0,-3.343,-3.3493,-3.3546,-3.3605,-3.3643,-3.3713,-3.3723,-3.3762,-3.3757,-3.3769,-3.3854,-3.3885,-3.3943,-3.3967,-3.3962,-3.4067,-3.4051,-3.4024,-3.3975,-3.4071,-3.411,-3.4127,-3.3914,-3.3913,-3.3912,-3.3911,0,0,-3.3578,-3.3635,-3.3655,-3.368,-3.3728,-3.3776,-3.3844,-3.3901,-3.3934,-3.3976,-3.4033,-3.4113,-3.4089,-3.412,-3.4119,-3.4166,-3.4263,-3.4133,-3.4134,-3.4156,-3.4381,-3.4401,-3.442,-3.4252,-3.4255,-3.4257,-3.4378,0,-3.3696,-3.3817,-3.3819,-3.393,-3.3987,-3.3967,-3.4026,-3.4061,-3.4075,-3.4125,-3.4139,-3.4196,-3.416,-3.4179,-3.4225,-3.4242,-3.4308,-3.4233,-3.4304,-3.4307,-3.4294,-3.4441,-3.4462,-3.4574,-3.4393,-3.4396,-3.4398,0,-3.385,-3.3896,-3.4013,-3.4052,-3.4076,-3.413,-3.4182,-3.423,-3.4269,-3.4275,-3.4311,-3.4302,-3.4371,-3.432,-3.4415,-3.4363,-3.4393,-3.4405,-3.441,-3.4416,-3.4358,-3.4451,-3.461,-3.4627,-3.4422,-3.442,-3.4419,0,-3.3945,-3.4037,-3.4119,-3.4142,-3.4189,-3.4227,-3.4248,-3.4284,-3.4318,-3.4363,-3.4385,-3.4438,-3.4467,-3.4508,-3.4513,-3.4475,-3.4608,-3.4557,-3.4615,-3.4615,-3.4644,-3.4642,-3.481,-3.4664,-3.4663,-3.4663,-3.4663,0,-3.4077,-3.4149,-3.4162,-3.4213,-3.4293,-3.4294,-3.4373,-3.4391,-3.4423,-3.4476,-3.4461,-3.4511,-3.4515,-3.4566,-3.457,-3.4648,-3.4662,-3.4668,-3.4669,-3.467,-3.4669,-3.4689,-3.4681,-3.4667,-3.4666,-3.4666,-3.4665,0,-3.4197,-3.4209,-3.4296,-3.4334,-3.4345,-3.4402,-3.4434,-3.4482,-3.4493,-3.4561,-3.4576,-3.4595,-3.4654,-3.4664,-3.4733,-3.4736,-3.483,-3.4822,-3.4817,-3.4815,-3.4873,-3.4868,-3.5059,-3.5084,-3.4922,-3.4923,-3.4924,0,-3.428,-3.4335,-3.4379,-3.4413,-3.4437,-3.4493,-3.4527,-3.453,-3.4567,-3.4615,-3.4657,-3.4715,-3.4761,-3.4857,-3.4876,-3.4929,-3.4923,-3.4986,-3.4931,-3.493,-3.4923,-3.492,-3.4925,-3.4997,-3.4999,-3.5,-3.5001,0,-3.4426,-3.4429,-3.448,-3.4533,-3.4575,-3.4617,-3.4656,-3.4685,-3.4693,-3.4735,-3.4796,-3.4832,-3.4903,-3.496,-3.5013,-3.5034,-3.5019,-3.5019,-3.5035,-3.5037,-3.5031,-3.5035,-3.4846,-3.5014,-3.5013,-3.5012,-3.5011,-3.5011,-3.453,-3.4578,-3.4616,-3.4673,-3.4703,-3.474,-3.4787,-3.4805,-3.4856,-3.4914,-3.4912,-3.4979,-3.5016,-3.5085,-3.511,-3.5162,-3.5141,-3.5165,-3.5171,-3.5176,-3.5182,-3.5023,-3.5171,-3.5171,-3.517,-3.517,-3.517,0,-3.4676,-3.4699,-3.4751,-3.4807,-3.4852,-3.4834,-3.4877,-3.4915,-3.4974,-3.501,-3.5056,-3.5126,-3.5181,-3.5205,-3.526,-3.5296,-3.5291,-3.5311,-3.5308,-3.5313,-3.5197,-3.5178,-3.5314,-3.5314,-3.5314,-3.5314,-3.5314,-3.5314,-3.4757,-3.4837,-3.4844,-3.4939,-3.4961,-3.5027,-3.5053,-3.5086,-3.5115,-3.5194,-3.524,-3.5255,-3.5286,-3.5343,-3.5393,-3.5398,-3.5419,-3.5442,-3.5444,-3.5336,-3.5321,-3.5307,-3.5289,-3.5446,-3.5446,-3.5555,-3.5556,-3.5557]}]]